Location: Boiro
(42.6475°N, 8.8834°W)
Time: 18:29:35
(UTC+01:00)

Altair - Pass Details

Date: 07 December 2021
Orbit: 1501 x 1683 km, 47.2° (Epoch: 25 January)

Event Time Altitude Azimuth Distance (km) Brightness Sun altitude
Rises 17:02:32 0° 247° (WSW) 4,803 11.8 8.0°
Reaches altitude 10° 17:05:40 10° 248° (WSW) 3,794 11.3 7.6°
Maximum altitude 17:15:18 86° 337° (NNW) 1,553 7.7 6.2°
Drops below altitude 10° 17:24:37 10° 68° (ENE) 3,676 8.9 4.9°
Sets 17:27:37 0° 69° (ENE) 4,648 9.4 4.4°
